Regional Weather Roundup
Issued by NWS

Home | Current Version | Previous Version | Graphics & Text | Print | Product List | Glossary On
Versions: 1 2 3 4 5 6 7 8 9 10 11 12 13 14 15 16 17 18 19 20 21 22 23 24 25 26 27 28 29 30 31 32 33 34 35 36 37 38 39 40 41 42 43 44 45 46 47 48 49 50
000
ASUS43 KMKX 030800
RWRWI

WISCONSIN REGIONAL WEATHER ROUNDUP
NATIONAL WEATHER SERVICE MILWAUKEE/SULLIVAN WI
300 AM CDT FRI JUL 03 2015

NOTE: "FAIR" INDICATES FEW OR NO CLOUDS BELOW 12,000 FEET WITH NO
SIGNIFICANT WEATHER AND/OR OBSTRUCTIONS TO VISIBILITY.

WIZ001-002-006>008-014>016-023>028-030900-
NORTHWEST WISCONSIN

CITY           SKY/WX    TMP DP  RH WIND       PRES   REMARKS
SUPERIOR ARPT  MOCLDY    60  56  89 SW8       29.92F
ASHLAND        CLEAR     58  55  90 SW5       29.94S
HAYWARD        CLEAR     52  49  89 CALM      29.98R
SIREN          CLEAR     61  55  79 SW5       29.97R
CUMBERLAND     CLEAR     54  52  94 CALM      29.98S
RICE LAKE      CLEAR     55  54  95 CALM      30.00R
CHETEK         CLEAR     56  56  99 CALM      29.99R
LADYSMITH      CLEAR     57  54  91 CALM      30.00S
EAU CLAIRE     FOG       55  55 100 CALM      29.98S VSB 3/4
MENOMONIE      CLEAR     56  55  95 CALM      29.98F
NEW RICHMOND   CLEAR     55  54  98 CALM      29.98S
OSCEOLA        CLEAR     57  57 100 CALM      30.00S
$$

WIZ003>005-009-010-017-018-030900-
NORTH CENTRAL WISCONSIN

CITY           SKY/WX    TMP DP  RH WIND       PRES   REMARKS
MANITOWISH WTR CLEAR     54  54  98 CALM      29.98S
ARBOR VITAE    CLEAR     57  55  92 CALM      29.99R
WOODRUFF       CLEAR     57  55  92 CALM      29.99R
RHINELANDER    CLEAR     57  50  77 SW8       30.00S
EAGLE RIVER    CLEAR     55  50  82 CALM      29.98S
LAND O LAKES   CLEAR     51  50  99 CALM      29.99S FOG
PHILLIPS       CLEAR     56  51  85 SW5       29.98S
TOMAHAWK       CLEAR     52  49  90 CALM      30.00S
MEDFORD        CLEAR     55  50  85 S5        30.00S
MERRILL        CLEAR     48  48 100 CALM      30.00S
$$

WIZ029-030-035-036-043>047-030900-
CENTRAL WISCONSIN

CITY           SKY/WX    TMP DP  RH WIND       PRES   REMARKS
WAUSAU         CLEAR     54  51  90 E3        29.99S
MOSINEE        CLEAR     52  50  93 S3        30.01S
MARSHFIELD     CLEAR     55  50  83 SW3       30.00S
STEVENS POINT  CLEAR     47  46  95 CALM      30.01S
WAUPACA        CLEAR     52  51  97 CALM      30.00F
WAUTOMA        NOT AVBL
WISC RAPIDS    CLEAR     55  47  74 CALM      30.01S
CAMP DOUGLAS   FOG       46  46 100 CALM      29.99S VSB 1/4
$$

WIZ011>013-019>022-031-037>040-048>050-030900-
NORTHEAST WISCONSIN

CITY           SKY/WX    TMP DP  RH WIND       PRES   REMARKS
ANTIGO         CLEAR     53  49  86 CALM      30.01S
SHAWANO        CLEAR     56  50  79 CALM      29.99S
OCONTO         CLEAR     52  50  93 SW3       29.98F
STURGEON BAY   CLEAR     55  43  62 S8        30.01S
GREEN BAY      CLEAR     53  50  89 CALM      29.99F
MANITOWOC      NOT AVBL
APPLETON       CLEAR     57  48  72 S3        30.00F
CLINTONVILLE   CLEAR     50  50 100 CALM      29.99F
OSHKOSH        PTCLDY    51  47  86 SW3       29.99F
$$

WIZ032>034-041-042-053>061-030900-
SOUTHWEST WISCONSIN

CITY           SKY/WX    TMP DP  RH WIND       PRES   REMARKS
LA CROSSE      PTCLDY    57  55  93 SE5       29.99S
SPARTA         PTCLDY    46  45  95 CALM      30.01S
VIROQUA        PTCLDY    57  52  82 CALM      30.00F
BOSCOBEL       MOCLDY    52  50  93 CALM      30.00S
PRAIRIE DU CHI MOCLDY    55  53  94 E3        29.99S
PLATTEVILLE    MOCLDY    55  52  89 NE3       30.00S
$$

WIZ056-057-062-063-064-067-068-030900-
SOUTH CENTRAL WISCONSIN

CITY           SKY/WX    TMP DP  RH WIND       PRES   REMARKS
REEDSBURG      PTCLDY    51  51  98 CALM      29.99F
BARABOO/DELLS  PTCLDY    51  47  85 CALM      30.00S
LONE ROCK      NOT AVBL
MINERAL POINT  MOCLDY    59  50  72 E3        30.00S
MADISON        MOCLDY    51  47  86 CALM      29.99F
MIDDLETON      MOCLDY    51  51  97 CALM      30.00F
WATERTOWN      PTCLDY    51  49  93 CALM      29.99F
MONROE         MOCLDY    54  50  87 E5        29.99S
JANESVILLE     MOCLDY    54  52  94 CALM      29.98F
$$

WIZ051-052-058>065-066-070>072-030900-
SOUTHEAST WISCONSIN

CITY           SKY/WX    TMP DP  RH WIND       PRES   REMARKS
MILWAUKEE      PTCLDY    53  47  79 CALM      29.99F
WAUKESHA       PTCLDY    50  45  81 CALM      30.00F
MILWAUKEE/TIMM PTCLDY    50  45  81 CALM      30.00F
RACINE         PTCLDY    54  48  80 CALM      30.00F
BURLINGTON     MOCLDY    48  47  96 CALM      29.99F
KENOSHA        MOCLDY    52  47  83 N3        29.98F
FOND DU LAC    PTCLDY    51  47  86 CALM      30.00S
SHEBOYGAN      CLEAR     50  46  86 NW3       30.00S
WEST BEND      PTCLDY    48  45  87 CALM      30.00S
JUNEAU         PTCLDY    51  48  88 CALM      30.01F
$$

LSZ147-162-030900-
LAKE SUPERIOR

STATION/POSITION TIME  TEMP    WIND        PRES    WAVE
                       AIR SEA DIR/SP/G            HT/PER
                 (UTC) (F)     (DEG/KT/KT) (MB)    (FT/S)
W MID LAKE BUOY  0650   48 38  220/ 12/ 12 1012.3R   1/ 3
DEVILS ISLAND    0700   65     230/ 14/ 15 1012.4F
SAXON HARBOR     0700   60      CALM  /  2 1013.2S
$$

LMZ867-665-643>646-030900-
LAKE MICHIGAN

STATION/POSITION TIME  TEMP    WIND        PRES    WAVE
                       AIR SEA DIR/SP/G            HT/PER
                 (UTC) (F)     (DEG/KT/KT) (MB)    (FT/S)
CHAMBERS ISLAND  0700   63     180/  4/  8 1015.2S
S GREEN BAY BUOY 0730   65 68  200/ 14/ 16 1016.8F
N MID LAKE BUOY  0650   52 47  210/  6/  6 1015.3F   0
NORTHPORT PIER   0700   58     190/  2/  5 1014.9F
SISTER BAY       0714   59     170/  9/ 11   N/A
ALGOMA LAKESHORE 0710             CALM       N/A
KEWAUNEE LAKESHO 0700   53     310/  3/  6 1015.1F
SHEBOYGAN LAKESH 0700   58     260/  4/  4 1016.1F
PORT WASHINGTON  0740   54     280/  3/  4 1016.3F
ATWATER BUOY     0700   60     350/  4/  6 1017.1F
MILWAUKEE LAKESH 0700   59     310/  1/  2   N/A
KENOSHA   LAKESH 0700   60      10/  8/  8 1015.6F
$$

TC  - TEMPERATURE IN CELSIUS
VSB - VISIBILITY IN STATUTE MILES
WCI - WIND CHILL INDEX
HX  - HEAT INDEX




USA.gov is the U.S. government's official web portal to all federal, state and local government web resources and services.